Location: Arbon
(43.0005°N, 0.7472°E)
Time: 08:54:37
(UTC+00:00)

SR - Pass Details

Date: 28 November 2020
Orbit: 575 x 880 km, 66.7° (Epoch: 27 January)

Event Time Altitude Azimuth Distance (km) Brightness Sun altitude
Rises 04:07:22 0° 321° (NW) 3,218 - -32.0°
Reaches altitude 10° 04:09:48 10° 314° (NW) 2,336 - -31.6°
Maximum altitude 04:14:48 40° 247° (WSW) 1,198 - -30.7°
Exits shadow 04:19:32 13° 182° (S) 2,275 ? -29.8°
Drops below altitude 10° 04:20:07 10° 180° (S) 2,476 ? -29.7°
Sets 04:22:46 0° 173° (S) 3,434 ? -29.2°
